Weather History for KEST - May, 2012

Change the Weather History Date:

Saturday, May 26, 2012

  Actual Average Record
Temperature  
Mean Temperature 68 °F 62 °F  
Max Temperature 79 °F 73 °F 98 °F (1967)
Min Temperature 57 °F 50 °F 35 °F (1961)
Degree Days  
Heating Degree Days 0 5  
Month to date heating degree days 91 217  
Since 1 July heating degree days 6143 7678  
Cooling Degree Days 3 2  
Month to date cooling degree days 57 23  
Year to date cooling degree days 77 25  
Growing Degree Days 18 (Base 50)    
Moisture  
Dew Point 62 °F    
Average Humidity 84    
Maximum Humidity 93    
Minimum Humidity 74    
Precipitation  
Precipitation 0.11 in 0.10 in 1.57 in (2013)
Month to date precipitation 4.83 3.15  
Year to date precipitation 11.32  
Sea Level Pressure  
Sea Level Pressure 29.92 in    
Wind  
Wind Speed 16 mph (ESE)    
Max Wind Speed 24 mph    
Max Gust Speed 29 mph    
Visibility 7 miles    
Events Rain , Thunderstorm    
T = Trace of Precipitation, MM = Missing Value Source: NWS Daily Summary

Daily Weather History Graph

Daily Weather History Graph

Search for Another Location

Airport or City:

Trip Planner

Search our weather history database for the weather conditions in past years. The results will help you decide how hot, cold, wet, or windy it might be!

Date:

Astronomy

May. 26, 2012 Rise Set
Actual Time 5:44 AM CDT 8:48 PM CDT
Civil Twilight 5:10 AM CDT 9:22 PM CDT
Nautical Twilight 4:26 AM CDT 10:06 PM CDT
Astronomical Twilight 3:34 AM CDT 10:59 PM CDT
Moon 10:51 AM CDT (5/26) 12:19 AM CDT (5/26)
Length of Visible Light 16h 12m
Length of Day
15h 03m
Waxing Crescent, 28% of the Moon is Illuminated
May 26
Waxing Crescent
May 28
First Quarter
Jun 4
Full
Jun 11
Last Quarter
Jun 19
New

Hourly Weather History & Observations

Time (CDT) Temp. Dew Point Humidity Pressure Visibility Wind Dir Wind Speed Gust Speed Precip Events Conditions
12:52 AM 60.1 °F 57.0 °F 90% 30.05 in 6.0 mi ENE 10.4 mph - N/A   Overcast
1:52 AM 60.1 °F 55.9 °F 86% 30.04 in 8.0 mi ENE 10.4 mph - N/A   Overcast
2:22 AM 60.8 °F 57.2 °F 88% 30.03 in 7.0 mi ENE 10.4 mph - N/A Thunderstorm Overcast
3:14 AM 59.0 °F 57.2 °F 94% 30.07 in 5.0 mi East 9.2 mph - 0.02 in Rain , Thunderstorm Heavy Rain
3:42 AM 59.0 °F 55.4 °F 88% 30.03 in 7.0 mi East 16.1 mph - 0.04 in Rain Light Rain
3:52 AM 57.9 °F 55.9 °F 93% 30.03 in 7.0 mi ESE 18.4 mph - 0.05 in Rain Light Rain
4:52 AM 57.9 °F 55.0 °F 90% 30.01 in 10.0 mi East 15.0 mph - 0.00 in   Clear
5:52 AM 57.0 °F 55.0 °F 93% 29.99 in 7.0 mi East 12.7 mph - N/A   Partly Cloudy
6:33 AM 57.2 °F 55.4 °F 94% 30.01 in 6.0 mi ENE 12.7 mph - N/A   Mostly Cloudy
6:52 AM 57.9 °F 55.9 °F 93% 29.98 in 7.0 mi East 15.0 mph - N/A   Overcast
7:52 AM 59.0 °F 55.9 °F 90% 29.97 in 10.0 mi ESE 17.3 mph - N/A   Overcast
8:52 AM 60.1 °F 57.0 °F 90% 29.96 in 10.0 mi ESE 17.3 mph - 0.00 in   Overcast
9:52 AM 64.0 °F 59.0 °F 84% 29.96 in 10.0 mi ESE 17.3 mph - N/A   Mostly Cloudy
10:42 AM 62.6 °F 57.2 °F 82% 29.99 in 10.0 mi East 16.1 mph 25.3 mph N/A   Overcast
10:52 AM 62.1 °F 57.9 °F 86% 29.99 in 10.0 mi ENE 13.8 mph - N/A   Overcast
11:52 AM 64.0 °F 59.0 °F 84% 29.95 in 10.0 mi East 15.0 mph 20.7 mph N/A   Overcast
12:52 PM 64.9 °F 60.1 °F 84% 29.93 in 10.0 mi East 13.8 mph - N/A   Overcast
1:52 PM 64.9 °F 61.0 °F 87% 29.92 in 9.0 mi East 13.8 mph - N/A   Overcast
2:52 PM 70.0 °F 64.9 °F 84% 29.88 in 7.0 mi ESE 18.4 mph 23.0 mph N/A   Overcast
3:52 PM 73.0 °F 66.0 °F 79% 29.86 in 6.0 mi SE 21.9 mph 28.8 mph N/A   Haze
4:52 PM 73.9 °F 68.0 °F 82% 29.84 in 5.0 mi SE 17.3 mph - N/A   Haze
5:26 PM 77.0 °F 69.8 °F 78% 29.85 in 5.0 mi SE 18.4 mph - N/A   Haze
5:52 PM 78.1 °F 70.0 °F 76% 29.81 in 5.0 mi SE 17.3 mph - N/A   Haze
6:52 PM 78.1 °F 70.0 °F 76% 29.78 in 6.0 mi ESE 20.7 mph - N/A   Haze
7:52 PM 75.0 °F 68.0 °F 79% 29.78 in 6.0 mi East 12.7 mph 21.9 mph N/A   Haze
8:52 PM 73.0 °F 68.0 °F 84% 29.77 in 5.0 mi East 12.7 mph - N/A   Haze
9:52 PM 72.0 °F 69.1 °F 91% 29.78 in 5.0 mi ESE 10.4 mph - N/A   Clear
10:52 PM 78.1 °F 72.0 °F 81% 29.77 in 8.0 mi SSE 20.7 mph - N/A   Clear
11:52 PM 75.9 °F 72.0 °F 87% 29.76 in 7.0 mi SSE 17.3 mph - N/A   Clear